Laughlin Air Force Base Del Rio US
ICAO: KDLF
IATA: DLF
Category: Large
Scheduled Services: No

Elevation: 1082 ft
TransAlt. 18000 ft.

Airport Communications:
DEL RIO APP:119.6
ATIS:114.4
CLNC DEL:120.5
DEL RIO DEP:119.6
GND:138.75
PMSV METRO:35.46
PTD:37.22
TWR:125.2

KDLF Zoom In..

If you have problems with the map follow the link
https://www.worldairports.se/pages/airport.php?
ICAO=KDLF

Runways:

(A) RW 13C length 8852 ft width 150 ft
ILS 110.30 / hdg 128

(B) RW 13L length 8315 ft width 150 ft
---- / hdg 128

(C) RW 13R length 6571 ft width 150 ft
---- / hdg 128

(D) RW 31C length 8852 ft width 150 ft
ILS 108.90 / hdg 308

(E) RW 31L length 6571 ft width 150 ft
---- / hdg 308

(F) RW 31R length 8315 ft width 150 ft
---- / hdg 308

Location; KDLF
Day. 19 / Time. 13.10 Zulu
* Altimeter: 30.17
* Temperature: 11° c. 51.8°f.
* Wind from: 360° Speed 03 kn.
Dewpoint: 07° c.
Visibility: 10 Statute Miles.
Clouds: Broken 2700 ft.
Clouds: Overcast 3800 ft.

KDLF 191310Z 36003KT 10SM BKN027 OVC038 11/07 A3017 RMK CIG 027V037 CIG 026 RWY13 SLP216


Wind From 360°
Speed 03 kn.

 
 
jpsmedia.com for Web Design worldairports.se 2018   terms of use